[[{"header":{"parameterUnit":"m.s-1","parameterCategory":1,"la1":30.2991,"la2":30.254,"lo1":-89.0895,"lo2":-89.0444,"dy":0.0017,"dx":0.0017,"nx":28,"ny":28,"refTime":"2023-08-30T21:00:00:Z","depth":0,"parameterNumber":2,"parameterNumberName":"U-component_of_WINDS"},"data":[0,0,0,0,0,0,0,0,0,0,0,0,0,0,0,0,0,0,0,0,0,0,0,0,0,0,0,0,0,0,0,0,0,0,0,0,0,0,0,0,0,0,0,0,0,0,0,0,0,0,0,0,0,0,0,0,0,0,-0.8021,-0.8021,0,-0.8019,-0.8019,-0.8019,-0.8008,-0.8008,-0.8007,-0.8007,-0.8003,-0.8003,-0.8003,0,0,0,0,0,0,0,0,0,0,0,0,0,-0.8011,-0.8011,-0.8021,-0.8021,-0.8021,-0.8019,-0.8019,-0.8019,-0.8008,-0.8008,-0.8007,-0.8007,-0.8003,-0.8003,-0.8003,0,0,0,0,0,0,0,0,0,0,0,0,0,-0.8013,-0.8011,-0.8021,-0.8016,-0.8015,-0.8019,-0.8019,-0.8019,-0.8008,-0.8008,-0.8007,-0.8007,-0.8003,-0.8003,-0.8003,-0.8012,0,0,-0.8004,-0.8004,0,0,0,0,0,0,0,0,-0.8013,-0.8013,-0.8016,-0.8016,-0.8015,-0.8013,-0.8014,-0.8017,-0.8008,-0.8011,-0.8007,-0.8007,-0.8007,-0.8007,-0.8007,-0.8012,-0.8012,-0.8004,-0.8004,-0.8004,-0.8004,0,0,0,0,0,0,0,-0.8013,-0.8013,-0.802,-0.8016,-0.8016,-0.8011,-0.8011,-0.8014,-0.8011,-0.801,-0.801,-0.801,-0.8006,-0.8007,-0.8007,-0.8012,-0.8004,-0.8004,-0.8004,-0.8004,-0.802,-0.8021,0,0,0,0,0,0,-0.8014,-0.8013,-0.8021,-0.802,-0.8013,-0.8012,-0.8012,-0.8014,-0.8011,-0.801,-0.801,-0.8009,-0.8007,-0.8007,-0.8007,-0.8015,-0.8004,-0.8004,-0.8004,-0.802,-0.802,-0.8021,0,0,0,0,0,0,-0.8014,-0.8015,-0.8021,-0.8017,-0.8017,-0.8013,-0.8016,-0.8015,-0.8015,-0.801,-0.8009,-0.8011,-0.8006,-0.8006,-0.801,-0.8014,-0.8004,-0.8005,-0.802,-0.802,-0.802,-0.8032,0,0,0,0,0,0,-0.8013,-0.8015,-0.802,-0.8017,-0.8017,-0.8026,-0.8016,-0.8015,-0.8016,-0.8015,-0.8012,-0.8011,-0.8006,-0.801,-0.801,-0.8015,-0.8005,-0.8019,-0.802,-0.802,-0.8032,-0.8033,-0.8035,0,0,0,0,0,-0.8013,-0.8023,-0.802,-0.8021,-0.8023,-0.8026,-0.8026,-0.8021,-0.8016,-0.802,-0.8016,-0.8011,-0.8014,-0.8011,-0.8011,-0.8015,-0.8019,-0.802,-0.802,-0.8031,-0.8033,-0.8035,0,0,0,0,0,0,-0.8027,-0.8023,-0.8019,-0.8029,-0.8028,-0.8024,-0.8029,-0.8024,-0.8024,-0.8023,-0.8016,-0.8015,-0.802,-0.8018,-0.8014,-0.8021,-0.8015,-0.8016,-0.8023,-0.8025,-0.8026,-0.8027,-0.8005,0,0,0,0,0,-0.8031,-0.8035,-0.8031,-0.804,-0.804,-0.8034,-0.8036,-0.8031,-0.803,-0.8029,-0.8026,-0.8024,-0.8024,-0.8024,-0.8024,-0.8031,-0.8028,-0.8033,-0.8035,-0.8036,-0.8037,-0.8037,-0.8038,-0.8023,-0.8023,-0.8023,0,0,-0.804,-0.8038,-0.8042,-0.8043,-0.8041,-0.8043,-0.8034,-0.8038,-0.8039,-0.803,-0.8033,-0.803,-0.8027,-0.8031,-0.8033,-0.803,-0.804,-0.8037,-0.8038,-0.8038,-0.8038,-0.8039,-0.804,-0.8023,-0.8023,-0.8023,0,0,-0.8058,-0.8058,-0.8064,-0.8062,-0.806,-0.8055,-0.8057,-0.8053,-0.8051,-0.8054,-0.8046,-0.8046,-0.8047,-0.8044,-0.8043,-0.8054,-0.8048,-0.8054,-0.8062,-0.8062,-0.8063,-0.8064,-0.8066,-0.8067,-0.8055,-0.8055,-0.8055,0,-0.8069,-0.8073,-0.8067,-0.807,-0.807,-0.8061,-0.8065,-0.8064,-0.8061,-0.806,-0.8057,-0.8055,-0.8053,-0.8055,-0.8057,-0.8057,-0.8056,-0.8055,-0.8064,-0.8064,-0.8065,-0.8067,-0.8068,-0.8055,-0.8055,-0.8055,-0.8055,0,-0.8086,-0.8088,-0.8093,-0.8091,-0.809,-0.8095,-0.8087,-0.8087,-0.8082,-0.8078,-0.8079,-0.8075,-0.8072,-0.8072,-0.8068,-0.8073,-0.807,-0.8065,-0.8058,-0.8068,-0.8069,-0.807,-0.8056,-0.8056,-0.8056,-0.8056,0,0,-0.8114,-0.8106,-0.8108,-0.8105,-0.81,-0.8101,-0.8103,-0.81,-0.8099,-0.8097,-0.8097,-0.8096,-0.809,-0.8088,-0.8083,-0.8083,-0.8089,-0.8077,-0.8077,-0.8079,-0.8091,-0.8095,-0.8096,-0.8085,-0.8085,-0.8085,-0.8091,0,-0.8129,-0.8133,-0.8126,-0.8131,-0.8132,-0.8121,-0.8122,-0.8118,-0.8113,-0.8111,-0.8105,-0.8104,-0.8097,-0.8096,-0.8095,-0.8089,-0.8092,-0.8088,-0.8083,-0.8083,-0.8084,-0.8097,-0.8102,-0.8108,-0.8092,-0.8092,-0.8092,0,-0.8148,-0.8146,-0.8151,-0.8142,-0.8142,-0.8144,-0.8139,-0.8138,-0.8132,-0.8127,-0.8124,-0.8117,-0.8115,-0.8108,-0.8105,-0.8103,-0.81,-0.8096,-0.8096,-0.8095,-0.8088,-0.8096,-0.811,-0.8111,-0.8093,-0.8093,-0.8093,0,-0.8166,-0.8164,-0.8166,-0.8164,-0.8155,-0.8155,-0.8151,-0.8144,-0.8142,-0.8137,-0.8135,-0.813,-0.8128,-0.8123,-0.8113,-0.811,-0.811,-0.8103,-0.8105,-0.8106,-0.8107,-0.8107,-0.812,-0.8106,-0.8106,-0.8106,-0.8106,0,-0.8183,-0.8186,-0.8173,-0.8175,-0.8176,-0.8166,-0.8168,-0.8163,-0.8156,-0.8154,-0.8144,-0.8143,-0.8131,-0.8127,-0.8119,-0.8116,-0.8115,-0.8111,-0.8109,-0.8111,-0.8112,-0.8109,-0.8109,-0.8106,-0.8106,-0.8106,-0.8106,0,-0.8204,-0.8196,-0.8197,-0.8187,-0.8184,-0.8186,-0.8176,-0.8176,-0.8169,-0.8166,-0.8165,-0.8154,-0.8149,-0.8138,-0.8131,-0.8125,-0.8123,-0.812,-0.8126,-0.8124,-0.8126,-0.8126,-0.8138,-0.8138,-0.8125,-0.8125,-0.8125,0,-0.8216,-0.8217,-0.8207,-0.8205,-0.8201,-0.8199,-0.8196,-0.8185,-0.8182,-0.8173,-0.8173,-0.8166,-0.8161,-0.8152,-0.8143,-0.8135,-0.8131,-0.8136,-0.813,-0.8132,-0.813,-0.8129,-0.8129,-0.8137,-0.8137,-0.8138,-0.8138,0,-0.8236,-0.8231,-0.8228,-0.8222,-0.8218,-0.8213,-0.8208,-0.8206,-0.8194,-0.819,-0.8185,-0.818,-0.8171,-0.8164,-0.8155,-0.8149,-0.814,-0.8139,-0.8139,-0.8142,-0.8145,-0.8142,-0.8128,-0.8139,-0.8139,-0.8139,-0.8139,-0.8139,-0.8252,-0.8251,-0.8243,-0.8239,-0.8233,-0.8227,-0.8225,-0.8217,-0.8212,-0.8204,-0.8197,-0.8191,-0.8181,-0.8168,-0.8162,-0.8156,-0.8152,-0.8153,-0.8153,-0.8153,-0.8153,-0.8145,-0.8154,-0.8154,-0.8154,-0.8154,-0.8154,0,-0.827,-0.8263,-0.8259,-0.8251,-0.8247,-0.8239,-0.8231,-0.8228,-0.8223,-0.8215,-0.8209,-0.82,-0.8193,-0.8181,-0.8172,-0.8169,-0.8165,-0.8167,-0.8167,-0.8165,-0.8158,-0.8158,-0.817,-0.817,-0.817,-0.817,-0.817,-0.817,-0.8279,-0.8278,-0.8271,-0.8265,-0.8258,-0.8253,-0.8248,-0.8242,-0.8235,-0.8226,-0.822,-0.8212,-0.8202,-0.8191,-0.8183,-0.8179,-0.8176,-0.8179,-0.8174,-0.8168,-0.8166,-0.8165,-0.8165,-0.8179,-0.8179,-0.8182,-0.8182,-0.8182]},{"header":{"parameterUnit":"m.s-1","parameterCategory":1,"la1":30.2991,"la2":30.254,"lo1":-89.0895,"lo2":-89.0444,"dy":0.0017,"dx":0.0017,"nx":28,"ny":28,"refTime":"2023-08-30T21:00:00:Z","depth":0,"parameterNumber":3,"parameterNumberName":"V-component_of_WINDS"},"data":[0,0,0,0,0,0,0,0,0,0,0,0,0,0,0,0,0,0,0,0,0,0,0,0,0,0,0,0,0,0,0,0,0,0,0,0,0,0,0,0,0,0,0,0,0,0,0,0,0,0,0,0,0,0,0,0,0,0,-1.3147,-1.3146,0,-1.3053,-1.3052,-1.3051,-1.303,-1.3031,-1.3032,-1.3032,-1.2931,-1.2927,-1.2924,0,0,0,0,0,0,0,0,0,0,0,0,0,-1.3301,-1.3299,-1.3147,-1.3146,-1.3145,-1.3053,-1.3052,-1.305,-1.303,-1.3031,-1.3032,-1.3033,-1.2932,-1.2928,-1.2924,0,0,0,0,0,0,0,0,0,0,0,0,0,-1.3223,-1.3298,-1.3147,-1.3124,-1.3121,-1.3053,-1.3052,-1.305,-1.303,-1.3031,-1.3032,-1.3033,-1.2933,-1.2928,-1.2923,-1.2871,0,0,-1.2908,-1.2905,0,0,0,0,0,0,0,0,-1.3228,-1.3218,-1.3128,-1.3125,-1.3122,-1.3055,-1.3069,-1.299,-1.303,-1.3064,-1.3032,-1.3034,-1.2971,-1.2962,-1.2942,-1.2866,-1.2862,-1.2907,-1.2904,-1.2902,-1.2901,0,0,0,0,0,0,0,-1.3233,-1.3222,-1.311,-1.3127,-1.3123,-1.3115,-1.3105,-1.3054,-1.3012,-1.3061,-1.306,-1.3049,-1.2969,-1.2947,-1.294,-1.286,-1.2907,-1.2903,-1.29,-1.2898,-1.2732,-1.2731,0,0,0,0,0,0,-1.3244,-1.3226,-1.3113,-1.3107,-1.3179,-1.3112,-1.31,-1.3075,-1.3013,-1.3005,-1.3048,-1.3048,-1.2955,-1.2946,-1.2936,-1.2868,-1.2902,-1.2897,-1.2894,-1.2733,-1.2732,-1.273,0,0,0,0,0,0,-1.3247,-1.3234,-1.3116,-1.3166,-1.3151,-1.3108,-1.3079,-1.3072,-1.3051,-1.3003,-1.2995,-1.3034,-1.2956,-1.2943,-1.2887,-1.2864,-1.2895,-1.289,-1.2735,-1.2733,-1.2731,-1.2734,0,0,0,0,0,0,-1.3252,-1.3235,-1.3217,-1.3166,-1.3148,-1.3071,-1.3078,-1.307,-1.3043,-1.3042,-1.2988,-1.298,-1.2956,-1.2894,-1.2882,-1.2858,-1.2887,-1.2737,-1.2734,-1.2732,-1.2735,-1.2732,-1.2729,0,0,0,0,0,-1.3257,-1.3221,-1.3216,-1.3203,-1.3125,-1.307,-1.3059,-1.3034,-1.3041,-1.3021,-1.299,-1.2982,-1.2869,-1.2889,-1.2874,-1.2849,-1.2738,-1.2735,-1.2732,-1.2737,-1.2732,-1.2729,0,0,0,0,0,0,-1.327,-1.3214,-1.3208,-1.3155,-1.3117,-1.3067,-1.3041,-1.3031,-1.2989,-1.299,-1.2958,-1.2946,-1.2891,-1.2864,-1.2887,-1.2793,-1.2804,-1.2797,-1.2812,-1.2808,-1.2805,-1.2811,-1.2882,0,0,0,0,0,-1.3267,-1.3229,-1.3182,-1.3139,-1.3121,-1.3084,-1.3059,-1.3042,-1.3001,-1.2985,-1.295,-1.2908,-1.2863,-1.2834,-1.2791,-1.2732,-1.2717,-1.2706,-1.2703,-1.2701,-1.2695,-1.2658,-1.2651,-1.272,-1.272,-1.272,0,0,-1.326,-1.3224,-1.3202,-1.3141,-1.311,-1.3068,-1.3071,-1.3028,-1.2996,-1.2978,-1.2922,-1.2894,-1.2846,-1.2787,-1.2759,-1.2763,-1.2673,-1.2697,-1.2696,-1.2691,-1.2654,-1.2647,-1.2642,-1.2718,-1.2718,-1.2719,0,0,-1.3225,-1.3196,-1.3156,-1.3124,-1.3077,-1.3052,-1.3043,-1.2992,-1.2974,-1.2917,-1.2902,-1.2862,-1.2787,-1.2751,-1.2724,-1.2672,-1.2661,-1.2659,-1.2641,-1.2605,-1.26,-1.2595,-1.2573,-1.2566,-1.2654,-1.2653,-1.2653,0,-1.3221,-1.316,-1.3136,-1.3093,-1.3064,-1.3047,-1.3004,-1.2974,-1.2914,-1.2894,-1.29,-1.2802,-1.2768,-1.2699,-1.2686,-1.2665,-1.265,-1.2664,-1.2603,-1.2598,-1.2592,-1.2571,-1.2563,-1.2653,-1.2653,-1.2653,-1.2653,0,-1.3156,-1.3114,-1.3087,-1.303,-1.2999,-1.2956,-1.2922,-1.2893,-1.2878,-1.2851,-1.2792,-1.2751,-1.2697,-1.2679,-1.2665,-1.2606,-1.261,-1.261,-1.2619,-1.2586,-1.2565,-1.2557,-1.2653,-1.2653,-1.2653,-1.2653,0,0,-1.3128,-1.3057,-1.3047,-1.3019,-1.2965,-1.293,-1.2885,-1.2833,-1.2806,-1.2765,-1.2724,-1.2659,-1.2657,-1.2626,-1.2606,-1.2575,-1.2532,-1.2578,-1.2576,-1.2568,-1.246,-1.2459,-1.245,-1.2525,-1.2524,-1.2522,-1.2463,0,-1.3084,-1.3005,-1.2979,-1.2912,-1.287,-1.2851,-1.2811,-1.2772,-1.2745,-1.2703,-1.2673,-1.2626,-1.263,-1.261,-1.2578,-1.2544,-1.2509,-1.2548,-1.2483,-1.2481,-1.2493,-1.244,-1.2439,-1.2386,-1.2455,-1.2454,-1.2453,0,-1.3023,-1.2981,-1.2909,-1.2857,-1.2838,-1.2803,-1.2751,-1.2713,-1.2666,-1.2648,-1.2612,-1.2594,-1.2542,-1.2556,-1.2482,-1.2509,-1.248,-1.2459,-1.2456,-1.2447,-1.2464,-1.2427,-1.2368,-1.2359,-1.2441,-1.2442,-1.2443,0,-1.3006,-1.2931,-1.2877,-1.2855,-1.2793,-1.2768,-1.274,-1.2695,-1.2664,-1.2618,-1.2597,-1.2545,-1.2516,-1.2475,-1.2442,-1.2456,-1.2369,-1.2382,-1.235,-1.2351,-1.2331,-1.2333,-1.2265,-1.2318,-1.2318,-1.2318,-1.2318,0,-1.2958,-1.2914,-1.2868,-1.2835,-1.2784,-1.2754,-1.2703,-1.2674,-1.2633,-1.2591,-1.2572,-1.2533,-1.2494,-1.2448,-1.2423,-1.2363,-1.235,-1.2332,-1.2325,-1.2332,-1.2334,-1.2312,-1.2313,-1.2316,-1.2316,-1.2317,-1.2317,0,-1.293,-1.2898,-1.2838,-1.2783,-1.2769,-1.2733,-1.2685,-1.265,-1.2622,-1.2569,-1.2555,-1.251,-1.2455,-1.2419,-1.2349,-1.2331,-1.2265,-1.226,-1.2281,-1.2277,-1.2247,-1.2249,-1.216,-1.2145,-1.221,-1.221,-1.2209,0,-1.2901,-1.2867,-1.2808,-1.278,-1.2752,-1.2707,-1.2675,-1.2643,-1.2609,-1.2551,-1.2522,-1.2467,-1.242,-1.2333,-1.2292,-1.2237,-1.2229,-1.2202,-1.2221,-1.2227,-1.2224,-1.2226,-1.222,-1.2198,-1.2197,-1.2197,-1.2197,0,-1.2852,-1.2837,-1.2793,-1.2742,-1.2704,-1.2662,-1.262,-1.2597,-1.2557,-1.252,-1.2464,-1.2428,-1.2355,-1.2299,-1.2239,-1.2208,-1.2194,-1.2191,-1.218,-1.2186,-1.2198,-1.2187,-1.227,-1.2193,-1.2193,-1.2194,-1.2194,-1.2194,-1.282,-1.2787,-1.274,-1.269,-1.2655,-1.2615,-1.2578,-1.2545,-1.2499,-1.2438,-1.2421,-1.2362,-1.2311,-1.2231,-1.2198,-1.2149,-1.2151,-1.2137,-1.2132,-1.2129,-1.2126,-1.2208,-1.2138,-1.2138,-1.2138,-1.2138,-1.2138,0,-1.2767,-1.2736,-1.269,-1.2631,-1.2591,-1.2583,-1.2535,-1.25,-1.2449,-1.2404,-1.2358,-1.2291,-1.2235,-1.2189,-1.2131,-1.21,-1.2091,-1.2085,-1.2085,-1.2077,-1.2129,-1.2143,-1.2092,-1.2092,-1.2092,-1.2092,-1.2092,-1.2092,-1.2735,-1.2677,-1.2656,-1.2579,-1.2547,-1.249,-1.2462,-1.2424,-1.2387,-1.2314,-1.2268,-1.2239,-1.2192,-1.2129,-1.2076,-1.2063,-1.2041,-1.2035,-1.2021,-1.207,-1.2075,-1.2079,-1.2092,-1.2031,-1.2031,-1.1973,-1.1972,-1.1972]}]]